owner,sensor,date,latitude,longitude,vertical_datum,wind_speed,wind_to_direction,wind_speed_of_gust,qcFlag 
NDBC,ioos:station:NOAA.NDBC:SANF1:1,2017-01-01T00:50:00Z,24.4560,-81.8770,45.4,10.3,130.0,11.8,'1111122,1111122,1111122' 
NDBC,ioos:station:NOAA.NDBC:SANF1:1,2017-01-01T01:50:00Z,24.4560,-81.8770,45.4,10.3,140.0,11.8,'1111122,1111122,1111122' 
NDBC,ioos:station:NOAA.NDBC:SANF1:1,2017-01-01T02:50:00Z,24.4560,-81.8770,45.4,10.8,140.0,11.8,'1111122,1111122,1111122' 
NDBC,ioos:station:NOAA.NDBC:SANF1:1,2017-01-01T03:50:00Z,24.4560,-81.8770,45.4,9.8,140.0,11.8,'1111122,1111122,1111122' 
NDBC,ioos:station:NOAA.NDBC:SANF1:1,2017-01-01T04:50:00Z,24.4560,-81.8770,45.4,10.3,140.0,11.3,'1111122,1111122,1111122' 
NDBC,ioos:station:NOAA.NDBC:SANF1:1,2017-01-01T05:50:00Z,24.4560,-81.8770,45.4,9.8,140.0,11.3,'1111122,1111122,1111122' 
NDBC,ioos:station:NOAA.NDBC:SANF1:1,2017-01-01T06:50:00Z,24.4560,-81.8770,45.4,9.8,140.0,10.8,'1111122,1111122,1111122' 
NDBC,ioos:station:NOAA.NDBC:SANF1:1,2017-01-01T07:50:00Z,24.4560,-81.8770,45.4,8.2,130.0,9.3,'1111122,1111122,1111122' 
NDBC,ioos:station:NOAA.NDBC:SANF1:1,2017-01-01T08:50:00Z,24.4560,-81.8770,45.4,8.2,130.0,9.8,'1111122,1111122,1111122' 
NDBC,ioos:station:NOAA.NDBC:SANF1:1,2017-01-01T09:50:00Z,24.4560,-81.8770,45.4,8.8,130.0,10.3,'1111122,1111122,1111122' 
NDBC,ioos:station:NOAA.NDBC:SANF1:1,2017-01-01T10:50:00Z,24.4560,-81.8770,45.4,8.8,130.0,9.8,'1111122,1111122,1111122' 
NDBC,ioos:station:NOAA.NDBC:SANF1:1,2017-01-01T11:50:00Z,24.4560,-81.8770,45.4,6.7,160.0,7.7,'1111122,1111122,1111122' 
NDBC,ioos:station:NOAA.NDBC:SANF1:1,2017-01-01T12:50:00Z,24.4560,-81.8770,45.4,5.7,180.0,7.2,'1111122,1111122,1111122' 
NDBC,ioos:station:NOAA.NDBC:SANF1:1,2017-01-01T14:50:00Z,24.4560,-81.8770,45.4,10.3,130.0,12.4,'1111122,1111122,1111122' 
NDBC,ioos:station:NOAA.NDBC:SANF1:1,2017-01-01T15:50:00Z,24.4560,-81.8770,45.4,6.2,140.0,8.2,'1111122,1111122,1111122' 
NDBC,ioos:station:NOAA.NDBC:SANF1:1,2017-01-01T16:50:00Z,24.4560,-81.8770,45.4,8.8,140.0,10.3,'1111122,1111122,1111122' 
NDBC,ioos:station:NOAA.NDBC:SANF1:1,2017-01-01T17:50:00Z,24.4560,-81.8770,45.4,8.2,140.0,9.8,'1111122,1111122,1111122' 
NDBC,ioos:station:NOAA.NDBC:SANF1:1,2017-01-01T18:50:00Z,24.4560,-81.8770,45.4,6.7,140.0,8.2,'1111122,1111122,1111122' 
NDBC,ioos:station:NOAA.NDBC:SANF1:1,2017-01-01T19:50:00Z,24.4560,-81.8770,45.4,7.2,170.0,7.7,'1111122,1111122,1111122' 
NDBC,ioos:station:NOAA.NDBC:SANF1:1,2017-01-01T20:50:00Z,24.4560,-81.8770,45.4,5.1,130.0,6.2,'1111122,1111122,1111122' 
NDBC,ioos:station:NOAA.NDBC:SANF1:1,2017-01-01T21:50:00Z,24.4560,-81.8770,45.4,5.7,130.0,6.2,'1111122,1111122,1111122' 
NDBC,ioos:station:NOAA.NDBC:SANF1:1,2017-01-01T22:50:00Z,24.4560,-81.8770,45.4,9.8,130.0,10.8,'1111122,1111122,1111122' 
NDBC,ioos:station:NOAA.NDBC:SANF1:1,2017-01-02T00:50:00Z,24.4560,-81.8770,45.4,7.7,130.0,8.8,'1111122,1111122,1111122' 
NDBC,ioos:station:NOAA.NDBC:SANF1:1,2017-01-02T02:50:00Z,24.4560,-81.8770,45.4,9.3,130.0,10.3,'1111122,1111122,1111122' 
NDBC,ioos:station:NOAA.NDBC:SANF1:1,2017-01-02T03:50:00Z,24.4560,-81.8770,45.4,9.8,130.0,11.3,'1111122,1111122,1111122' 
NDBC,ioos:station:NOAA.NDBC:SANF1:1,2017-01-02T04:50:00Z,24.4560,-81.8770,45.4,8.8,130.0,10.3,'1111122,1111122,1111122' 
NDBC,ioos:station:NOAA.NDBC:SANF1:1,2017-01-02T05:50:00Z,24.4560,-81.8770,45.4,8.8,130.0,9.8,'1111122,1111122,1111122' 
NDBC,ioos:station:NOAA.NDBC:SANF1:1,2017-01-02T06:50:00Z,24.4560,-81.8770,45.4,9.3,140.0,10.8,'1111122,1111122,1111122' 
NDBC,ioos:station:NOAA.NDBC:SANF1:1,2017-01-02T07:50:00Z,24.4560,-81.8770,45.4,9.8,140.0,10.8,'1111122,1111122,1111122' 
NDBC,ioos:station:NOAA.NDBC:SANF1:1,2017-01-02T08:50:00Z,24.4560,-81.8770,45.4,8.8,130.0,9.8,'1111122,1111122,1111122' 
NDBC,ioos:station:NOAA.NDBC:SANF1:1,2017-01-02T09:50:00Z,24.4560,-81.8770,45.4,8.2,130.0,9.3,'1111122,1111122,1111122' 
NDBC,ioos:station:NOAA.NDBC:SANF1:1,2017-01-02T10:50:00Z,24.4560,-81.8770,45.4,7.7,130.0,8.8,'1111122,1111122,1111122' 
NDBC,ioos:station:NOAA.NDBC:SANF1:1,2017-01-02T11:50:00Z,24.4560,-81.8770,45.4,9.3,140.0,12.4,'1111122,1111122,1111122' 
NDBC,ioos:station:NOAA.NDBC:SANF1:1,2017-01-02T12:50:00Z,24.4560,-81.8770,45.4,6.7,140.0,9.3,'1111122,1111122,1111122' 
NDBC,ioos:station:NOAA.NDBC:SANF1:1,2017-01-02T14:50:00Z,24.4560,-81.8770,45.4,8.2,140.0,9.3,'1111122,1111122,1111122' 
NDBC,ioos:station:NOAA.NDBC:SANF1:1,2017-01-02T15:50:00Z,24.4560,-81.8770,45.4,9.3,140.0,9.8,'1111122,1111122,1111122' 
NDBC,ioos:station:NOAA.NDBC:SANF1:1,2017-01-02T17:50:00Z,24.4560,-81.8770,45.4,7.2,140.0,8.8,'1111122,1111122,1111122' 
NDBC,ioos:station:NOAA.NDBC:SANF1:1,2017-01-02T18:50:00Z,24.4560,-81.8770,45.4,6.7,130.0,8.2,'1111122,1111122,1111122' 
NDBC,ioos:station:NOAA.NDBC:SANF1:1,2017-01-02T19:50:00Z,24.4560,-81.8770,45.4,5.1,130.0,7.2,'1111122,1111122,1111122' 
NDBC,ioos:station:NOAA.NDBC:SANF1:1,2017-01-02T20:50:00Z,24.4560,-81.8770,45.4,7.7,120.0,8.8,'1111122,1111122,1111122' 
NDBC,ioos:station:NOAA.NDBC:SANF1:1,2017-01-02T22:50:00Z,24.4560,-81.8770,45.4,7.7,120.0,9.3,'1111122,1111122,1111122' 
NDBC,ioos:station:NOAA.NDBC:SANF1:1,2017-01-02T23:50:00Z,24.4560,-81.8770,45.4,8.2,120.0,9.8,'1111122,1111122,1111122' 
NDBC,ioos:station:NOAA.NDBC:SANF1:1,2017-01-03T00:50:00Z,24.4560,-81.8770,45.4,7.7,110.0,9.3,'1111122,1111122,1111122' 
NDBC,ioos:station:NOAA.NDBC:SANF1:1,2017-01-03T02:50:00Z,24.4560,-81.8770,45.4,7.7,130.0,8.8,'1111122,1111122,1111122' 
NDBC,ioos:station:NOAA.NDBC:SANF1:1,2017-01-03T03:50:00Z,24.4560,-81.8770,45.4,8.2,140.0,9.8,'1111122,1111122,1111122' 
NDBC,ioos:station:NOAA.NDBC:SANF1:1,2017-01-03T04:50:00Z,24.4560,-81.8770,45.4,8.8,140.0,9.8,'1111122,1111122,1111122' 
NDBC,ioos:station:NOAA.NDBC:SANF1:1,2017-01-03T05:50:00Z,24.4560,-81.8770,45.4,6.2,130.0,6.7,'1111122,1111122,1111122' 
NDBC,ioos:station:NOAA.NDBC:SANF1:1,2017-01-03T06:50:00Z,24.4560,-81.8770,45.4,7.7,140.0,8.2,'1111122,1111122,1111122' 
NDBC,ioos:station:NOAA.NDBC:SANF1:1,2017-01-03T07:50:00Z,24.4560,-81.8770,45.4,8.2,160.0,9.3,'1111122,1111122,1111122' 
NDBC,ioos:station:NOAA.NDBC:SANF1:1,2017-01-03T08:50:00Z,24.4560,-81.8770,45.4,7.2,150.0,8.2,'1111122,1111122,1111122' 
NDBC,ioos:station:NOAA.NDBC:SANF1:1,2017-01-03T09:50:00Z,24.4560,-81.8770,45.4,8.8,160.0,9.8,'1111122,1111122,1111122' 
NDBC,ioos:station:NOAA.NDBC:SANF1:1,2017-01-03T10:50:00Z,24.4560,-81.8770,45.4,6.2,180.0,6.7,'1111122,1111122,1111122' 
NDBC,ioos:station:NOAA.NDBC:SANF1:1,2017-01-03T11:50:00Z,24.4560,-81.8770,45.4,6.2,200.0,7.2,'1111122,1111122,1111122' 
NDBC,ioos:station:NOAA.NDBC:SANF1:1,2017-01-03T12:50:00Z,24.4560,-81.8770,45.4,4.1,220.0,6.2,'1111122,1111122,1111122' 
NDBC,ioos:station:NOAA.NDBC:SANF1:1,2017-01-03T14:50:00Z,24.4560,-81.8770,45.4,3.1,210.0,6.7,'1111122,1111122,1111122' 
NDBC,ioos:station:NOAA.NDBC:SANF1:1,2017-01-03T15:50:00Z,24.4560,-81.8770,45.4,5.1,140.0,6.2,'1111122,1111122,1111122' 
NDBC,ioos:station:NOAA.NDBC:SANF1:1,2017-01-03T17:50:00Z,24.4560,-81.8770,45.4,1.5,210.0,2.6,'1111122,1111122,1111122' 
NDBC,ioos:station:NOAA.NDBC:SANF1:1,2017-01-03T18:50:00Z,24.4560,-81.8770,45.4,1.5,200.0,3.6,'1111122,1111122,1111122' 
NDBC,ioos:station:NOAA.NDBC:SANF1:1,2017-01-03T19:50:00Z,24.4560,-81.8770,45.4,1.5,250.0,2.6,'1111122,1111122,1111122' 
NDBC,ioos:station:NOAA.NDBC:SANF1:1,2017-01-03T20:50:00Z,24.4560,-81.8770,45.4,1.5,240.0,2.1,'1111122,1111122,1111122' 
NDBC,ioos:station:NOAA.NDBC:SANF1:1,2017-01-03T21:50:00Z,24.4560,-81.8770,45.4,1.0,330.0,1.5,'1111122,1111122,1111122' 
NDBC,ioos:station:NOAA.NDBC:SANF1:1,2017-01-03T22:50:00Z,24.4560,-81.8770,45.4,0.5,80.0,1.0,'1111122,1111122,1111122' 
NDBC,ioos:station:NOAA.NDBC:SANF1:1,2017-01-03T23:50:00Z,24.4560,-81.8770,45.4,0.0,-9999.0,0.5,'1114422,1111122,1111122' 
NDBC,ioos:station:NOAA.NDBC:SANF1:1,2017-01-04T00:50:00Z,24.4560,-81.8770,45.4,0.5,140.0,0.5,'1111122,1111122,1111122' 
NDBC,ioos:station:NOAA.NDBC:SANF1:1,2017-01-04T02:50:00Z,24.4560,-81.8770,45.4,2.1,140.0,2.1,'1111122,1111122,1111122' 
NDBC,ioos:station:NOAA.NDBC:SANF1:1,2017-01-04T03:50:00Z,24.4560,-81.8770,45.4,1.5,170.0,2.1,'1111122,1111122,1111122' 
NDBC,ioos:station:NOAA.NDBC:SANF1:1,2017-01-04T04:50:00Z,24.4560,-81.8770,45.4,2.1,170.0,2.1,'1111122,1111122,1111122' 
NDBC,ioos:station:NOAA.NDBC:SANF1:1,2017-01-04T05:50:00Z,24.4560,-81.8770,45.4,3.1,170.0,3.6,'1111122,1111122,1111122' 
NDBC,ioos:station:NOAA.NDBC:SANF1:1,2017-01-04T06:50:00Z,24.4560,-81.8770,45.4,2.6,190.0,3.1,'1111122,1111122,1111122' 
NDBC,ioos:station:NOAA.NDBC:SANF1:1,2017-01-04T07:50:00Z,24.4560,-81.8770,45.4,3.6,190.0,4.1,'1111122,1111122,1111122' 
NDBC,ioos:station:NOAA.NDBC:SANF1:1,2017-01-04T08:50:00Z,24.4560,-81.8770,45.4,3.1,210.0,3.1,'1111122,1111122,1111122' 
NDBC,ioos:station:NOAA.NDBC:SANF1:1,2017-01-04T09:50:00Z,24.4560,-81.8770,45.4,2.6,230.0,3.1,'1111122,1111122,1111122' 
NDBC,ioos:station:NOAA.NDBC:SANF1:1,2017-01-04T10:50:00Z,24.4560,-81.8770,45.4,2.6,240.0,3.1,'1111122,1111122,1111122' 
NDBC,ioos:station:NOAA.NDBC:SANF1:1,2017-01-04T11:50:00Z,24.4560,-81.8770,45.4,2.1,230.0,2.6,'1111122,1111122,1111122' 
NDBC,ioos:station:NOAA.NDBC:SANF1:1,2017-01-04T12:50:00Z,24.4560,-81.8770,45.4,3.1,240.0,3.6,'1111122,1111122,1111122' 
NDBC,ioos:station:NOAA.NDBC:SANF1:1,2017-01-04T14:50:00Z,24.4560,-81.8770,45.4,2.6,270.0,3.1,'1111122,1111122,1111122' 
NDBC,ioos:station:NOAA.NDBC:SANF1:1,2017-01-04T15:50:00Z,24.4560,-81.8770,45.4,2.6,310.0,3.6,'1111122,1111122,1111122' 
NDBC,ioos:station:NOAA.NDBC:SANF1:1,2017-01-04T16:50:00Z,24.4560,-81.8770,45.4,4.1,310.0,4.6,'1111122,1111122,1111122' 
NDBC,ioos:station:NOAA.NDBC:SANF1:1,2017-01-04T17:50:00Z,24.4560,-81.8770,45.4,5.1,250.0,5.7,'1111122,1111122,1111122' 
NDBC,ioos:station:NOAA.NDBC:SANF1:1,2017-01-04T18:50:00Z,24.4560,-81.8770,45.4,3.1,270.0,4.1,'1111122,1111122,1111122' 
NDBC,ioos:station:NOAA.NDBC:SANF1:1,2017-01-04T19:50:00Z,24.4560,-81.8770,45.4,5.7,260.0,6.7,'1111122,1111122,1111122' 
NDBC,ioos:station:NOAA.NDBC:SANF1:1,2017-01-04T20:50:00Z,24.4560,-81.8770,45.4,5.1,280.0,6.2,'1111122,1111122,1111122' 
NDBC,ioos:station:NOAA.NDBC:SANF1:1,2017-01-04T22:50:00Z,24.4560,-81.8770,45.4,4.1,290.0,5.7,'1111122,1111122,1111122' 
NDBC,ioos:station:NOAA.NDBC:SANF1:1,2017-01-04T23:50:00Z,24.4560,-81.8770,45.4,5.7,280.0,6.2,'1111122,1111122,1111122' 
NDBC,ioos:station:NOAA.NDBC:SANF1:1,2017-01-05T00:50:00Z,24.4560,-81.8770,45.4,4.1,310.0,4.6,'1111122,1111122,1111122' 
NDBC,ioos:station:NOAA.NDBC:SANF1:1,2017-01-05T02:50:00Z,24.4560,-81.8770,45.4,4.6,280.0,5.1,'1111122,1111122,1111122' 
NDBC,ioos:station:NOAA.NDBC:SANF1:1,2017-01-05T03:50:00Z,24.4560,-81.8770,45.4,4.1,300.0,4.6,'1111122,1111122,1111122' 
NDBC,ioos:station:NOAA.NDBC:SANF1:1,2017-01-05T04:50:00Z,24.4560,-81.8770,45.4,4.1,280.0,5.1,'1111122,1111122,1111122' 
NDBC,ioos:station:NOAA.NDBC:SANF1:1,2017-01-05T05:50:00Z,24.4560,-81.8770,45.4,4.1,250.0,5.1,'1111122,1111122,1111122' 
NDBC,ioos:station:NOAA.NDBC:SANF1:1,2017-01-05T06:50:00Z,24.4560,-81.8770,45.4,5.1,340.0,6.7,'1111122,1111122,1111122' 
NDBC,ioos:station:NOAA.NDBC:SANF1:1,2017-01-05T07:50:00Z,24.4560,-81.8770,45.4,6.2,360.0,6.7,'1111122,1111122,1111122' 
NDBC,ioos:station:NOAA.NDBC:SANF1:1,2017-01-05T08:50:00Z,24.4560,-81.8770,45.4,3.1,70.0,3.6,'1111122,1111122,1111122' 
NDBC,ioos:station:NOAA.NDBC:SANF1:1,2017-01-05T09:50:00Z,24.4560,-81.8770,45.4,2.6,80.0,2.6,'1111122,1111122,1111122' 
NDBC,ioos:station:NOAA.NDBC:SANF1:1,2017-01-05T10:50:00Z,24.4560,-81.8770,45.4,4.6,30.0,5.1,'1111122,1111122,1111122' 
NDBC,ioos:station:NOAA.NDBC:SANF1:1,2017-01-05T11:50:00Z,24.4560,-81.8770,45.4,5.1,40.0,6.2,'1111122,1111122,1111122' 
NDBC,ioos:station:NOAA.NDBC:SANF1:1,2017-01-05T13:50:00Z,24.4560,-81.8770,45.4,3.6,80.0,4.1,'1111122,1111122,1111122' 
NDBC,ioos:station:NOAA.NDBC:SANF1:1,2017-01-05T14:50:00Z,24.4560,-81.8770,45.4,3.6,70.0,4.1,'1111122,1111122,1111122' 
NDBC,ioos:station:NOAA.NDBC:SANF1:1,2017-01-05T15:50:00Z,24.4560,-81.8770,45.4,2.1,100.0,2.6,'1111122,1111122,1111122' 
NDBC,ioos:station:NOAA.NDBC:SANF1:1,2017-01-05T16:50:00Z,24.4560,-81.8770,45.4,1.0,70.0,2.1,'1111122,1111122,1111122' 
NDBC,ioos:station:NOAA.NDBC:SANF1:1,2017-01-05T17:50:00Z,24.4560,-81.8770,45.4,1.5,150.0,2.1,'1111122,1111122,1111122' 
NDBC,ioos:station:NOAA.NDBC:SANF1:1,2017-01-05T18:50:00Z,24.4560,-81.8770,45.4,1.5,110.0,2.1,'1111122,1111122,1111122' 
NDBC,ioos:station:NOAA.NDBC:SANF1:1,2017-01-05T19:50:00Z,24.4560,-81.8770,45.4,1.0,70.0,1.5,'1111122,1111122,1111122' 
NDBC,ioos:station:NOAA.NDBC:SANF1:1,2017-01-05T20:50:00Z,24.4560,-81.8770,45.4,1.5,50.0,2.1,'1111122,1111122,1111122' 
NDBC,ioos:station:NOAA.NDBC:SANF1:1,2017-01-05T21:50:00Z,24.4560,-81.8770,45.4,2.1,50.0,2.6,'1111122,1111122,1111122' 
NDBC,ioos:station:NOAA.NDBC:SANF1:1,2017-01-05T22:50:00Z,24.4560,-81.8770,45.4,2.1,60.0,2.6,'1111122,1111122,1111122' 
NDBC,ioos:station:NOAA.NDBC:SANF1:1,2017-01-05T23:50:00Z,24.4560,-81.8770,45.4,2.6,40.0,3.1,'1111122,1111122,1111122' 
NDBC,ioos:station:NOAA.NDBC:SANF1:1,2017-01-06T00:50:00Z,24.4560,-81.8770,45.4,2.6,60.0,3.6,'1111122,1111122,1111122' 
NDBC,ioos:station:NOAA.NDBC:SANF1:1,2017-01-06T01:50:00Z,24.4560,-81.8770,45.4,3.6,60.0,4.1,'1111122,1111122,1111122' 
NDBC,ioos:station:NOAA.NDBC:SANF1:1,2017-01-06T03:50:00Z,24.4560,-81.8770,45.4,3.6,90.0,4.1,'1111122,1111122,1111122' 
NDBC,ioos:station:NOAA.NDBC:SANF1:1,2017-01-06T04:50:00Z,24.4560,-81.8770,45.4,4.6,80.0,5.1,'1111122,1111122,1111122' 
NDBC,ioos:station:NOAA.NDBC:SANF1:1,2017-01-06T05:50:00Z,24.4560,-81.8770,45.4,4.6,100.0,5.1,'1111122,1111122,1111122' 
NDBC,ioos:station:NOAA.NDBC:SANF1:1,2017-01-06T06:50:00Z,24.4560,-81.8770,45.4,4.6,110.0,5.7,'1111122,1111122,1111122' 
NDBC,ioos:station:NOAA.NDBC:SANF1:1,2017-01-06T07:50:00Z,24.4560,-81.8770,45.4,4.1,110.0,5.1,'1111122,1111122,1111122' 
NDBC,ioos:station:NOAA.NDBC:SANF1:1,2017-01-06T08:50:00Z,24.4560,-81.8770,45.4,4.1,110.0,4.6,'1111122,1111122,1111122' 
NDBC,ioos:station:NOAA.NDBC:SANF1:1,2017-01-06T09:50:00Z,24.4560,-81.8770,45.4,5.1,120.0,6.2,'1111122,1111122,1111122' 
NDBC,ioos:station:NOAA.NDBC:SANF1:1,2017-01-06T10:50:00Z,24.4560,-81.8770,45.4,5.1,120.0,6.2,'1111122,1111122,1111122' 
NDBC,ioos:station:NOAA.NDBC:SANF1:1,2017-01-06T11:50:00Z,24.4560,-81.8770,45.4,6.2,120.0,6.7,'1111122,1111122,1111122' 
NDBC,ioos:station:NOAA.NDBC:SANF1:1,2017-01-06T14:50:00Z,24.4560,-81.8770,45.4,4.6,150.0,5.7,'1111122,1111122,1111122' 
NDBC,ioos:station:NOAA.NDBC:SANF1:1,2017-01-06T18:50:00Z,24.4560,-81.8770,45.4,3.6,140.0,4.6,'1111122,1111122,1111122' 
NDBC,ioos:station:NOAA.NDBC:SANF1:1,2017-01-06T19:50:00Z,24.4560,-81.8770,45.4,6.7,170.0,7.7,'1111122,1111122,1111122' 
NDBC,ioos:station:NOAA.NDBC:SANF1:1,2017-01-06T20:50:00Z,24.4560,-81.8770,45.4,5.7,170.0,7.2,'1111122,1111122,1111122' 
NDBC,ioos:station:NOAA.NDBC:SANF1:1,2017-01-06T21:50:00Z,24.4560,-81.8770,45.4,5.1,160.0,5.7,'1111122,1111122,1111122' 
NDBC,ioos:station:NOAA.NDBC:SANF1:1,2017-01-06T22:50:00Z,24.4560,-81.8770,45.4,5.1,150.0,5.7,'1111122,1111122,1111122' 
NDBC,ioos:station:NOAA.NDBC:SANF1:1,2017-01-07T00:50:00Z,24.4560,-81.8770,45.4,4.1,150.0,4.6,'1111122,1111122,1111122' 
NDBC,ioos:station:NOAA.NDBC:SANF1:1,2017-01-07T02:50:00Z,24.4560,-81.8770,45.4,5.7,170.0,6.2,'1111122,1111122,1111122' 
NDBC,ioos:station:NOAA.NDBC:SANF1:1,2017-01-07T03:50:00Z,24.4560,-81.8770,45.4,5.7,180.0,6.2,'1111122,1111122,1111122' 
NDBC,ioos:station:NOAA.NDBC:SANF1:1,2017-01-07T04:50:00Z,24.4560,-81.8770,45.4,6.2,210.0,7.2,'1111122,1111122,1111122' 
NDBC,ioos:station:NOAA.NDBC:SANF1:1,2017-01-07T05:50:00Z,24.4560,-81.8770,45.4,6.2,230.0,6.7,'1111122,1111122,1111122' 
NDBC,ioos:station:NOAA.NDBC:SANF1:1,2017-01-07T06:50:00Z,24.4560,-81.8770,45.4,6.2,210.0,6.7,'1111122,1111122,1111122' 
NDBC,ioos:station:NOAA.NDBC:SANF1:1,2017-01-07T07:50:00Z,24.4560,-81.8770,45.4,8.8,210.0,9.8,'1111122,1111122,1111122' 
NDBC,ioos:station:NOAA.NDBC:SANF1:1,2017-01-07T08:50:00Z,24.4560,-81.8770,45.4,8.8,210.0,9.3,'1111122,1111122,1111122' 
NDBC,ioos:station:NOAA.NDBC:SANF1:1,2017-01-07T13:50:00Z,24.4560,-81.8770,45.4,6.2,220.0,7.2,'1111122,1111122,1111122' 
NDBC,ioos:station:NOAA.NDBC:SANF1:1,2017-01-07T15:50:00Z,24.4560,-81.8770,45.4,4.1,220.0,7.2,'1111122,1111122,1111122' 
NDBC,ioos:station:NOAA.NDBC:SANF1:1,2017-01-07T17:50:00Z,24.4560,-81.8770,45.4,7.2,240.0,8.2,'1111122,1111122,1111122' 
NDBC,ioos:station:NOAA.NDBC:SANF1:1,2017-01-07T18:50:00Z,24.4560,-81.8770,45.4,10.3,320.0,12.4,'1111122,1111122,1111122' 
NDBC,ioos:station:NOAA.NDBC:SANF1:1,2017-01-07T19:50:00Z,24.4560,-81.8770,45.4,7.7,310.0,9.3,'1111122,1111122,1111122' 
NDBC,ioos:station:NOAA.NDBC:SANF1:1,2017-01-07T20:50:00Z,24.4560,-81.8770,45.4,9.8,320.0,11.3,'1111122,1111122,1111122' 
NDBC,ioos:station:NOAA.NDBC:SANF1:1,2017-01-07T21:50:00Z,24.4560,-81.8770,45.4,15.4,350.0,18.5,'1111122,1111122,1111122' 
NDBC,ioos:station:NOAA.NDBC:SANF1:1,2017-01-07T22:50:00Z,24.4560,-81.8770,45.4,12.9,360.0,15.4,'1111122,1111122,1111122' 
NDBC,ioos:station:NOAA.NDBC:SANF1:1,2017-01-07T23:50:00Z,24.4560,-81.8770,45.4,13.4,10.0,14.9,'1111122,1111122,1111122' 
NDBC,ioos:station:NOAA.NDBC:SANF1:1,2017-01-08T00:50:00Z,24.4560,-81.8770,45.4,14.9,360.0,17.5,'1111122,1111122,1111122' 
NDBC,ioos:station:NOAA.NDBC:SANF1:1,2017-01-08T02:50:00Z,24.4560,-81.8770,45.4,13.9,360.0,16.5,'1111122,1111122,1111122' 
NDBC,ioos:station:NOAA.NDBC:SANF1:1,2017-01-08T03:50:00Z,24.4560,-81.8770,45.4,13.9,360.0,16.5,'1111122,1111122,1111122' 
NDBC,ioos:station:NOAA.NDBC:SANF1:1,2017-01-08T04:50:00Z,24.4560,-81.8770,45.4,13.9,360.0,16.5,'1111122,1111122,1111122' 
NDBC,ioos:station:NOAA.NDBC:SANF1:1,2017-01-08T05:50:00Z,24.4560,-81.8770,45.4,13.4,10.0,16.0,'1111122,1111122,1111122' 
NDBC,ioos:station:NOAA.NDBC:SANF1:1,2017-01-08T07:50:00Z,24.4560,-81.8770,45.4,13.4,30.0,17.0,'1111122,1111122,1111122' 
NDBC,ioos:station:NOAA.NDBC:SANF1:1,2017-01-08T08:50:00Z,24.4560,-81.8770,45.4,13.4,30.0,16.0,'1111122,1111122,1111122' 
NDBC,ioos:station:NOAA.NDBC:SANF1:1,2017-01-08T09:50:00Z,24.4560,-81.8770,45.4,14.4,20.0,17.0,'1111122,1111122,1111122' 
NDBC,ioos:station:NOAA.NDBC:SANF1:1,2017-01-08T10:50:00Z,24.4560,-81.8770,45.4,13.9,30.0,17.5,'1111122,1111122,1111122' 
NDBC,ioos:station:NOAA.NDBC:SANF1:1,2017-01-08T11:50:00Z,24.4560,-81.8770,45.4,14.4,30.0,18.0,'1111122,1111122,1111122' 
NDBC,ioos:station:NOAA.NDBC:SANF1:1,2017-01-08T12:50:00Z,24.4560,-81.8770,45.4,14.9,30.0,17.5,'1111122,1111122,1111122' 
NDBC,ioos:station:NOAA.NDBC:SANF1:1,2017-01-08T14:50:00Z,24.4560,-81.8770,45.4,14.9,30.0,18.0,'1111122,1111122,1111122' 
NDBC,ioos:station:NOAA.NDBC:SANF1:1,2017-01-08T15:50:00Z,24.4560,-81.8770,45.4,14.4,30.0,18.0,'1111122,1111122,1111122' 
NDBC,ioos:station:NOAA.NDBC:SANF1:1,2017-01-08T16:50:00Z,24.4560,-81.8770,45.4,14.4,40.0,17.5,'1111122,1111122,1111122' 
NDBC,ioos:station:NOAA.NDBC:SANF1:1,2017-01-08T17:50:00Z,24.4560,-81.8770,45.4,13.9,30.0,16.5,'1111122,1111122,1111122' 
NDBC,ioos:station:NOAA.NDBC:SANF1:1,2017-01-08T18:50:00Z,24.4560,-81.8770,45.4,12.9,40.0,14.4,'1111122,1111122,1111122' 
NDBC,ioos:station:NOAA.NDBC:SANF1:1,2017-01-08T19:50:00Z,24.4560,-81.8770,45.4,12.9,30.0,14.4,'1111122,1111122,1111122' 
NDBC,ioos:station:NOAA.NDBC:SANF1:1,2017-01-08T20:50:00Z,24.4560,-81.8770,45.4,12.4,30.0,14.4,'1111122,1111122,1111122' 
NDBC,ioos:station:NOAA.NDBC:SANF1:1,2017-01-08T21:50:00Z,24.4560,-81.8770,45.4,11.8,30.0,13.4,'1111122,1111122,1111122' 
NDBC,ioos:station:NOAA.NDBC:SANF1:1,2017-01-08T22:50:00Z,24.4560,-81.8770,45.4,10.3,40.0,13.4,'1111122,1111122,1111122' 
NDBC,ioos:station:NOAA.NDBC:SANF1:1,2017-01-08T23:50:00Z,24.4560,-81.8770,45.4,11.8,40.0,14.4,'1111122,1111122,1111122' 
NDBC,ioos:station:NOAA.NDBC:SANF1:1,2017-01-09T00:50:00Z,24.4560,-81.8770,45.4,13.4,50.0,14.9,'1111122,1111122,1111122' 
NDBC,ioos:station:NOAA.NDBC:SANF1:1,2017-01-09T01:50:00Z,24.4560,-81.8770,45.4,13.4,50.0,15.4,'1111122,1111122,1111122' 
NDBC,ioos:station:NOAA.NDBC:SANF1:1,2017-01-09T02:50:00Z,24.4560,-81.8770,45.4,14.4,50.0,18.0,'1111122,1111122,1111122' 
NDBC,ioos:station:NOAA.NDBC:SANF1:1,2017-01-09T03:50:00Z,24.4560,-81.8770,45.4,13.4,60.0,15.4,'1111122,1111122,1111122' 
NDBC,ioos:station:NOAA.NDBC:SANF1:1,2017-01-09T04:50:00Z,24.4560,-81.8770,45.4,13.9,50.0,16.0,'1111122,1111122,1111122' 
NDBC,ioos:station:NOAA.NDBC:SANF1:1,2017-01-09T05:50:00Z,24.4560,-81.8770,45.4,13.9,50.0,16.5,'1111122,1111122,1111122' 
NDBC,ioos:station:NOAA.NDBC:SANF1:1,2017-01-09T06:50:00Z,24.4560,-81.8770,45.4,12.4,50.0,14.4,'1111122,1111122,1111122' 
NDBC,ioos:station:NOAA.NDBC:SANF1:1,2017-01-09T07:50:00Z,24.4560,-81.8770,45.4,12.9,50.0,14.4,'1111122,1111122,1111122' 
NDBC,ioos:station:NOAA.NDBC:SANF1:1,2017-01-09T08:50:00Z,24.4560,-81.8770,45.4,11.3,60.0,13.4,'1111122,1111122,1111122' 
NDBC,ioos:station:NOAA.NDBC:SANF1:1,2017-01-09T09:50:00Z,24.4560,-81.8770,45.4,11.3,50.0,12.9,'1111122,1111122,1111122' 
NDBC,ioos:station:NOAA.NDBC:SANF1:1,2017-01-09T10:50:00Z,24.4560,-81.8770,45.4,11.3,50.0,13.4,'1111122,1111122,1111122' 
NDBC,ioos:station:NOAA.NDBC:SANF1:1,2017-01-09T11:50:00Z,24.4560,-81.8770,45.4,11.8,60.0,13.9,'1111122,1111122,1111122' 
NDBC,ioos:station:NOAA.NDBC:SANF1:1,2017-01-09T12:50:00Z,24.4560,-81.8770,45.4,11.8,60.0,13.4,'1111122,1111122,1111122' 
NDBC,ioos:station:NOAA.NDBC:SANF1:1,2017-01-09T14:50:00Z,24.4560,-81.8770,45.4,11.8,70.0,13.4,'1111122,1111122,1111122' 
NDBC,ioos:station:NOAA.NDBC:SANF1:1,2017-01-09T15:50:00Z,24.4560,-81.8770,45.4,12.4,60.0,13.9,'1111122,1111122,1111122' 
NDBC,ioos:station:NOAA.NDBC:SANF1:1,2017-01-09T16:50:00Z,24.4560,-81.8770,45.4,11.8,70.0,13.9,'1111122,1111122,1111122' 
NDBC,ioos:station:NOAA.NDBC:SANF1:1,2017-01-09T17:50:00Z,24.4560,-81.8770,45.4,11.3,70.0,13.4,'1111122,1111122,1111122' 
NDBC,ioos:station:NOAA.NDBC:SANF1:1,2017-01-09T18:54:00Z,24.4560,-81.8770,45.4,10.8,70.0,12.4,'1111122,1111122,1111122' 
NDBC,ioos:station:NOAA.NDBC:SANF1:1,2017-01-09T19:50:00Z,24.4560,-81.8770,45.4,11.8,70.0,13.9,'1111122,1111122,1111122' 
NDBC,ioos:station:NOAA.NDBC:SANF1:1,2017-01-09T20:50:00Z,24.4560,-81.8770,45.4,12.4,80.0,13.9,'1111122,1111122,1111122' 
NDBC,ioos:station:NOAA.NDBC:SANF1:1,2017-01-09T21:50:00Z,24.4560,-81.8770,45.4,11.8,70.0,13.4,'1111122,1111122,1111122' 
NDBC,ioos:station:NOAA.NDBC:SANF1:1,2017-01-09T22:50:00Z,24.4560,-81.8770,45.4,13.4,70.0,14.9,'1111122,1111122,1111122' 
NDBC,ioos:station:NOAA.NDBC:SANF1:1,2017-01-09T23:50:00Z,24.4560,-81.8770,45.4,11.8,80.0,13.9,'1111122,1111122,1111122' 
NDBC,ioos:station:NOAA.NDBC:SANF1:1,2017-01-10T00:50:00Z,24.4560,-81.8770,45.4,12.4,70.0,13.9,'1111122,1111122,1111122' 
NDBC,ioos:station:NOAA.NDBC:SANF1:1,2017-01-10T02:50:00Z,24.4560,-81.8770,45.4,12.4,60.0,14.4,'1111122,1111122,1111122' 
NDBC,ioos:station:NOAA.NDBC:SANF1:1,2017-01-10T03:50:00Z,24.4560,-81.8770,45.4,12.9,60.0,14.9,'1111122,1111122,1111122' 
NDBC,ioos:station:NOAA.NDBC:SANF1:1,2017-01-10T04:50:00Z,24.4560,-81.8770,45.4,12.9,60.0,14.4,'1111122,1111122,1111122' 
NDBC,ioos:station:NOAA.NDBC:SANF1:1,2017-01-10T05:50:00Z,24.4560,-81.8770,45.4,12.4,60.0,13.9,'1111122,1111122,1111122' 
NDBC,ioos:station:NOAA.NDBC:SANF1:1,2017-01-10T06:50:00Z,24.4560,-81.8770,45.4,10.8,60.0,12.9,'1111122,1111122,1111122' 
NDBC,ioos:station:NOAA.NDBC:SANF1:1,2017-01-10T07:50:00Z,24.4560,-81.8770,45.4,10.3,60.0,11.8,'1111122,1111122,1111122' 
NDBC,ioos:station:NOAA.NDBC:SANF1:1,2017-01-10T08:50:00Z,24.4560,-81.8770,45.4,10.8,60.0,12.4,'1111122,1111122,1111122' 
NDBC,ioos:station:NOAA.NDBC:SANF1:1,2017-01-10T09:50:00Z,24.4560,-81.8770,45.4,10.8,60.0,12.4,'1111122,1111122,1111122' 
NDBC,ioos:station:NOAA.NDBC:SANF1:1,2017-01-10T10:50:00Z,24.4560,-81.8770,45.4,10.8,60.0,12.4,'1111122,1111122,1111122' 
NDBC,ioos:station:NOAA.NDBC:SANF1:1,2017-01-10T11:50:00Z,24.4560,-81.8770,45.4,11.3,60.0,12.4,'1111122,1111122,1111122' 
NDBC,ioos:station:NOAA.NDBC:SANF1:1,2017-01-10T13:50:00Z,24.4560,-81.8770,45.4,9.8,70.0,11.3,'1111122,1111122,1111122' 
NDBC,ioos:station:NOAA.NDBC:SANF1:1,2017-01-10T14:50:00Z,24.4560,-81.8770,45.4,10.3,80.0,12.4,'1111122,1111122,1111122' 
NDBC,ioos:station:NOAA.NDBC:SANF1:1,2017-01-10T15:50:00Z,24.4560,-81.8770,45.4,9.3,60.0,10.3,'1111122,1111122,1111122' 